SWA2554 KPWM-KEWR

Flight info

Callsign SWA2554
Flight time 0h 58m
Altitude 36000
Route HSKEL3 HANAA FLOSI4
Aircraft B738/M-SDE2E3FGHIRWXY/LB1

Departure

Time 2026-05-04 21:28
Airport Portland International Jetport (KPWM)

Arrival

Time 2026-05-04 22:27
Airport Newark Liberty International Airport (KEWR)
Time Latitude Longitude Altitude Speed Heading
2026-05-04 21:02 43.64673 -70.30983 59 ft 0 kts
2026-05-04 21:22 43.64672 -70.30983 59 ft 1 kts
2026-05-04 21:22 43.64664 -70.30984 59 ft 0 kts
2026-05-04 21:23 43.64656 -70.30985 54 ft 5 kts
2026-05-04 21:23 43.64627 -70.30991 55 ft 4 kts 39°
2026-05-04 21:23 43.64616 -70.31009 52 ft 2 kts 84°
2026-05-04 21:23 43.64616 -70.31002 55 ft 0 kts 84°
2026-05-04 21:24 43.64616 -70.31001 60 ft 1 kts 85°
2026-05-04 21:24 43.64607 -70.30974 53 ft 5 kts 121°
2026-05-04 21:24 43.64587 -70.30923 55 ft 9 kts 111°
2026-05-04 21:25 43.64578 -70.30810 58 ft 13 kts 96°
2026-05-04 21:25 43.64569 -70.30683 56 ft 13 kts 96°
2026-05-04 21:25 43.64560 -70.30560 54 ft 13 kts 96°
2026-05-04 21:25 43.64550 -70.30406 52 ft 20 kts 95°
2026-05-04 21:26 43.64533 -70.30183 55 ft 26 kts 96°
2026-05-04 21:26 43.64522 -70.29993 52 ft 10 kts 92°
2026-05-04 21:26 43.64499 -70.29923 48 ft 0 kts 148°
2026-05-04 21:27 43.64494 -70.29921 48 ft 3 kts 157°
2026-05-04 21:27 43.64444 -70.29926 47 ft 10 kts 197°
2026-05-04 21:27 43.64413 -70.30014 48 ft 18 kts 275°
2026-05-04 21:27 43.64447 -70.30539 53 ft 92 kts 275°
2026-05-04 21:28 43.64526 -70.31718 129 ft 149 kts 273°
2026-05-04 21:28 43.64608 -70.33268 686 ft 172 kts 273°
2026-05-04 21:28 43.64762 -70.34937 1570 ft 175 kts 276°
2026-05-04 21:28 43.64913 -70.36521 2824 ft 158 kts 272°
2026-05-04 21:29 43.64995 -70.38237 2940 ft 201 kts 272°
2026-05-04 21:29 43.65095 -70.40253 2997 ft 216 kts 273°
2026-05-04 21:29 43.65214 -70.42364 2996 ft 222 kts 274°
2026-05-04 21:29 43.65344 -70.44489 2986 ft 225 kts 274°
2026-05-04 21:30 43.65499 -70.46725 3372 ft 240 kts 279°
2026-05-04 21:30 43.65913 -70.48944 4531 ft 238 kts 284°
2026-05-04 21:30 43.66375 -70.51137 5591 ft 238 kts 284°
2026-05-04 21:30 43.66835 -70.53336 6624 ft 239 kts 284°
2026-05-04 21:31 43.67758 -70.57839 8460 ft 247 kts 284°
2026-05-04 21:31 43.68223 -70.60137 9409 ft 250 kts 284°
2026-05-04 21:31 43.68687 -70.62443 10270 ft 254 kts 284°
2026-05-04 21:32 43.69177 -70.64892 10637 ft 278 kts 284°
2026-05-04 21:32 43.69722 -70.67626 10852 ft 304 kts 284°
2026-05-04 21:32 43.70300 -70.70532 11063 ft 328 kts 284°
2026-05-04 21:32 43.70914 -70.73620 11612 ft 339 kts 284°
2026-05-04 21:33 43.71543 -70.76793 12341 ft 345 kts 284°
2026-05-04 21:33 43.71908 -70.80074 13148 ft 349 kts 269°
2026-05-04 21:33 43.71543 -70.83408 13931 ft 355 kts 256°
2026-05-04 21:33 43.70696 -70.86637 14633 ft 360 kts 251°
2026-05-04 21:34 43.69736 -70.89855 15297 ft 365 kts 250°
2026-05-04 21:34 43.68752 -70.93113 15950 ft 369 kts 251°
2026-05-04 21:34 43.67777 -70.96406 16655 ft 372 kts 251°
2026-05-04 21:34 43.66807 -70.99740 17328 ft 376 kts 251°
2026-05-04 21:35 43.65860 -71.03018 17944 ft 380 kts 251°
2026-05-04 21:35 43.64937 -71.06454 18529 ft 382 kts 256°
2026-05-04 21:35 43.64227 -71.09997 19087 ft 385 kts 259°
2026-05-04 21:35 43.63605 -71.13604 19609 ft 388 kts 260°
2026-05-04 21:36 43.62998 -71.17256 20157 ft 391 kts 260°
2026-05-04 21:36 43.62592 -71.19691 20506 ft 394 kts 260°
2026-05-04 21:36 43.61962 -71.23393 20961 ft 399 kts 260°
2026-05-04 21:36 43.61310 -71.27141 21428 ft 404 kts 260°
2026-05-04 21:37 43.60640 -71.30919 21957 ft 407 kts 260°
2026-05-04 21:37 43.59730 -71.35970 22611 ft 412 kts 260°
2026-05-04 21:37 43.59032 -71.39816 23081 ft 415 kts 260°
2026-05-04 21:37 43.58323 -71.43702 23513 ft 419 kts 260°
2026-05-04 21:38 43.57842 -71.46334 23791 ft 420 kts 260°
2026-05-04 21:38 43.57123 -71.50252 24236 ft 422 kts 260°
2026-05-04 21:38 43.56401 -71.54183 24692 ft 423 kts 260°
2026-05-04 21:38 43.55677 -71.58116 25120 ft 424 kts 260°
2026-05-04 21:39 43.54949 -71.62066 25519 ft 426 kts 260°
2026-05-04 21:39 43.54215 -71.66044 25915 ft 428 kts 260°
2026-05-04 21:39 43.53487 -71.69977 26283 ft 430 kts 260°
2026-05-04 21:39 43.52745 -71.73982 26636 ft 432 kts 260°
2026-05-04 21:40 43.51997 -71.78008 26977 ft 434 kts 260°
2026-05-04 21:40 43.51245 -71.82048 27315 ft 436 kts 260°
2026-05-04 21:40 43.50489 -71.86098 27706 ft 437 kts 260°
2026-05-04 21:40 43.49732 -71.90139 28356 ft 430 kts 260°
2026-05-04 21:41 43.48993 -71.94057 29433 ft 416 kts 261°
2026-05-04 21:41 43.48273 -71.97860 30440 ft 403 kts 261°
2026-05-04 21:41 43.47597 -72.01434 31372 ft 389 kts 262°
2026-05-04 21:41 43.46927 -72.04964 32361 ft 375 kts 263°
2026-05-04 21:42 43.46275 -72.08430 32857 ft 375 kts 263°
2026-05-04 21:42 43.45619 -72.11933 33043 ft 380 kts 263°
2026-05-04 21:42 43.44956 -72.15471 33298 ft 383 kts 263°
2026-05-04 21:42 43.44285 -72.19024 33622 ft 385 kts 263°
2026-05-04 21:43 43.43606 -72.22602 33915 ft 387 kts 263°
2026-05-04 21:43 43.42922 -72.26195 34113 ft 390 kts 263°
2026-05-04 21:43 43.42229 -72.29824 34312 ft 393 kts 262°
2026-05-04 21:43 43.41531 -72.33470 34537 ft 395 kts 262°
2026-05-04 21:44 43.40830 -72.37126 34780 ft 397 kts 262°
2026-05-04 21:44 43.40122 -72.40814 35002 ft 399 kts 261°
2026-05-04 21:44 43.39411 -72.44515 35199 ft 402 kts 261°
2026-05-04 21:45 43.38011 -72.52058 35341 ft 412 kts 263°
2026-05-04 21:45 43.36770 -72.59783 35586 ft 415 kts 263°
2026-05-04 21:45 43.36165 -72.63608 35784 ft 413 kts 263°
2026-05-04 21:46 43.35549 -72.67469 35783 ft 416 kts 263°
2026-05-04 21:46 43.34284 -72.75294 35789 ft 423 kts 262°
2026-05-04 21:47 43.32995 -72.83115 35551 ft 411 kts 263°
2026-05-04 21:47 43.32361 -72.86931 35018 ft 409 kts 263°
2026-05-04 21:47 43.31728 -72.90750 34374 ft 410 kts 264°
2026-05-04 21:47 43.31095 -72.94572 33708 ft 412 kts 264°
2026-05-04 21:48 43.30459 -72.98416 32845 ft 415 kts 264°
2026-05-04 21:48 43.29832 -73.02193 32023 ft 417 kts 263°
2026-05-04 21:48 43.29183 -73.06083 31179 ft 418 kts 263°
2026-05-04 21:48 43.28530 -73.09990 30264 ft 422 kts 262°
2026-05-04 21:49 43.27869 -73.13926 29343 ft 424 kts 262°
2026-05-04 21:49 43.27209 -73.17835 29034 ft 419 kts 262°
2026-05-04 21:49 43.26549 -73.21748 28901 ft 423 kts 262°
2026-05-04 21:50 43.25204 -73.29706 28781 ft 431 kts 262°
2026-05-04 21:50 43.23851 -73.37655 28765 ft 425 kts 262°
2026-05-04 21:51 43.22512 -73.45503 28773 ft 426 kts 262°
2026-05-04 21:51 43.21151 -73.53411 28760 ft 427 kts 259°
2026-05-04 21:51 43.19974 -73.57193 28770 ft 440 kts 243°
2026-05-04 21:52 43.17992 -73.60453 28774 ft 452 kts 230°
2026-05-04 21:52 43.15458 -73.63096 28770 ft 466 kts 216°
2026-05-04 21:52 43.12435 -73.64842 28801 ft 476 kts 205°
2026-05-04 21:53 43.06105 -73.67610 28786 ft 478 kts 204°
2026-05-04 21:53 42.99748 -73.70298 28793 ft 478 kts 204°
2026-05-04 21:54 42.93408 -73.73054 28796 ft 478 kts 204°
2026-05-04 21:54 42.87088 -73.75851 28797 ft 477 kts 204°
2026-05-04 21:55 42.80772 -73.78653 28789 ft 477 kts 204°
2026-05-04 21:55 42.74449 -73.81451 28795 ft 478 kts 204°
2026-05-04 21:56 42.68124 -73.84241 28799 ft 478 kts 204°
2026-05-04 21:56 42.61790 -73.87027 28792 ft 479 kts 204°
2026-05-04 21:57 42.55453 -73.89809 28804 ft 479 kts 204°
2026-05-04 21:57 42.52331 -73.91172 28611 ft 464 kts 204°
2026-05-04 21:57 42.49340 -73.92466 28427 ft 439 kts 204°
2026-05-04 21:57 42.46508 -73.93689 28291 ft 416 kts 204°
2026-05-04 21:58 42.43818 -73.94855 28164 ft 396 kts 205°
2026-05-04 21:58 42.41306 -73.95942 27643 ft 374 kts 205°
2026-05-04 21:58 42.38851 -73.97016 26459 ft 370 kts 205°
2026-05-04 21:58 42.36416 -73.98089 25297 ft 367 kts 205°
2026-05-04 21:59 42.33999 -73.99153 24292 ft 361 kts 205°
2026-05-04 21:59 42.31696 -74.00161 23374 ft 354 kts 205°
2026-05-04 21:59 42.29383 -74.01170 22263 ft 347 kts 205°
2026-05-04 21:59 42.27106 -74.02161 21231 ft 340 kts 204°
2026-05-04 22:00 42.24868 -74.03135 20554 ft 335 kts 204°
2026-05-04 22:00 42.22658 -74.04097 20006 ft 333 kts 204°
2026-05-04 22:00 42.20458 -74.05054 19496 ft 331 kts 204°
2026-05-04 22:00 42.18273 -74.06003 19055 ft 328 kts 204°
2026-05-04 22:01 42.16111 -74.06940 18604 ft 325 kts 203°
2026-05-04 22:01 42.13967 -74.07868 18187 ft 323 kts 203°
2026-05-04 22:01 42.11832 -74.08794 17798 ft 321 kts 203°
2026-05-04 22:01 42.09719 -74.09706 17415 ft 316 kts 203°
2026-05-04 22:02 42.07633 -74.10605 16934 ft 314 kts 203°
2026-05-04 22:02 42.05552 -74.11502 16459 ft 313 kts 203°
2026-05-04 22:02 42.03480 -74.12397 16015 ft 311 kts 203°
2026-05-04 22:02 42.01428 -74.13282 15586 ft 309 kts 203°
2026-05-04 22:03 41.99392 -74.14159 15145 ft 307 kts 203°
2026-05-04 22:03 41.97363 -74.15033 14718 ft 305 kts 203°
2026-05-04 22:03 41.95347 -74.15900 14312 ft 303 kts 203°
2026-05-04 22:03 41.93340 -74.16763 13896 ft 302 kts 203°
2026-05-04 22:04 41.91346 -74.17619 13453 ft 300 kts 203°
2026-05-04 22:04 41.89360 -74.18471 12990 ft 298 kts 203°
2026-05-04 22:04 41.87394 -74.19314 12600 ft 295 kts 203°
2026-05-04 22:04 41.85447 -74.20148 12170 ft 292 kts 203°
2026-05-04 22:05 41.83517 -74.20974 11766 ft 290 kts 202°
2026-05-04 22:05 41.81598 -74.21796 11462 ft 288 kts 202°
2026-05-04 22:05 41.79721 -74.22600 11133 ft 287 kts 202°
2026-05-04 22:05 41.77820 -74.23413 10833 ft 285 kts 202°
2026-05-04 22:06 41.75934 -74.24219 10539 ft 283 kts 202°
2026-05-04 22:06 41.74064 -74.25018 10232 ft 282 kts 202°
2026-05-04 22:06 41.72200 -74.25814 9934 ft 280 kts 202°
2026-05-04 22:06 41.70350 -74.26603 9644 ft 278 kts 202°
2026-05-04 22:07 41.68508 -74.27388 9310 ft 277 kts 202°
2026-05-04 22:07 41.66678 -74.28167 9027 ft 274 kts 202°
2026-05-04 22:07 41.64866 -74.28939 8689 ft 273 kts 202°
2026-05-04 22:07 41.63063 -74.29707 8416 ft 271 kts 202°
2026-05-04 22:08 41.61271 -74.30469 8097 ft 270 kts 202°
2026-05-04 22:08 41.59489 -74.31227 7822 ft 267 kts 202°
2026-05-04 22:08 41.57716 -74.31980 7516 ft 266 kts 202°
2026-05-04 22:08 41.55980 -74.32716 7255 ft 264 kts 202°
2026-05-04 22:09 41.54216 -74.33465 7028 ft 262 kts 202°
2026-05-04 22:09 41.52484 -74.34212 6997 ft 268 kts 202°
2026-05-04 22:09 41.50718 -74.34976 6967 ft 265 kts 202°
2026-05-04 22:09 41.48977 -74.35728 6958 ft 262 kts 202°
2026-05-04 22:10 41.47250 -74.36476 6973 ft 260 kts 201°
2026-05-04 22:10 41.45522 -74.37221 6970 ft 262 kts 201°
2026-05-04 22:10 41.43783 -74.37971 6977 ft 263 kts 201°
2026-05-04 22:10 41.42040 -74.38721 6974 ft 263 kts 202°
2026-05-04 22:11 41.40295 -74.39473 6978 ft 264 kts 202°
2026-05-04 22:11 41.38545 -74.40227 6968 ft 264 kts 201°
2026-05-04 22:11 41.36794 -74.40980 6976 ft 265 kts 201°
2026-05-04 22:11 41.35040 -74.41734 6974 ft 265 kts 202°
2026-05-04 22:12 41.33281 -74.42489 6966 ft 264 kts 201°
2026-05-04 22:12 41.31534 -74.43239 6967 ft 264 kts 201°
2026-05-04 22:12 41.29784 -74.43990 6967 ft 263 kts 201°
2026-05-04 22:12 41.28041 -74.44737 6976 ft 264 kts 202°
2026-05-04 22:13 41.26293 -74.45487 6970 ft 264 kts 201°
2026-05-04 22:13 41.24540 -74.46236 6971 ft 264 kts 202°
2026-05-04 22:13 41.22793 -74.46984 6961 ft 262 kts 201°
2026-05-04 22:13 41.21110 -74.47701 6881 ft 251 kts 202°
2026-05-04 22:14 41.19494 -74.48388 6782 ft 236 kts 201°
2026-05-04 22:14 41.17898 -74.48613 6612 ft 234 kts 175°
2026-05-04 22:14 41.16415 -74.47701 6312 ft 241 kts 143°
2026-05-04 22:14 41.15339 -74.45959 6033 ft 247 kts 129°
2026-05-04 22:15 41.14373 -74.44028 6024 ft 254 kts 128°
2026-05-04 22:15 41.13408 -74.42056 5984 ft 255 kts 128°
2026-05-04 22:15 41.12450 -74.40084 5976 ft 253 kts 127°
2026-05-04 22:15 41.11499 -74.38118 5949 ft 250 kts 127°
2026-05-04 22:16 41.10563 -74.36193 5662 ft 248 kts 127°
2026-05-04 22:16 41.09624 -74.34276 5300 ft 247 kts 127°
2026-05-04 22:16 41.08686 -74.32364 5023 ft 248 kts 127°
2026-05-04 22:16 41.07743 -74.30446 5009 ft 249 kts 127°
2026-05-04 22:17 41.06795 -74.28522 4992 ft 248 kts 127°
2026-05-04 22:17 41.05855 -74.26613 4986 ft 247 kts 127°
2026-05-04 22:17 41.04919 -74.24711 4974 ft 246 kts 127°
2026-05-04 22:17 41.04001 -74.22844 4989 ft 244 kts 127°
2026-05-04 22:18 41.03077 -74.20970 4975 ft 242 kts 128°
2026-05-04 22:18 41.02172 -74.19128 4861 ft 232 kts 129°
2026-05-04 22:18 41.01092 -74.17661 4652 ft 217 kts 148°
2026-05-04 22:18 40.99904 -74.16444 4340 ft 215 kts 147°
2026-05-04 22:19 40.98725 -74.15229 4059 ft 215 kts 147°
2026-05-04 22:19 40.97543 -74.14012 4030 ft 216 kts 147°
2026-05-04 22:19 40.96353 -74.12785 3986 ft 217 kts 147°
2026-05-04 22:19 40.95164 -74.11547 3994 ft 217 kts 147°
2026-05-04 22:20 40.93992 -74.10315 3884 ft 213 kts 147°
2026-05-04 22:20 40.92830 -74.09094 3557 ft 213 kts 147°
2026-05-04 22:20 40.91668 -74.07889 3263 ft 211 kts 147°
2026-05-04 22:20 40.90511 -74.06686 3045 ft 211 kts 147°
2026-05-04 22:21 40.89353 -74.05479 3001 ft 213 kts 147°
2026-05-04 22:21 40.88143 -74.04409 2971 ft 205 kts 166°
2026-05-04 22:21 40.86786 -74.04338 2973 ft 194 kts 202°
2026-05-04 22:21 40.85727 -74.05351 2967 ft 190 kts 232°
2026-05-04 22:22 40.84873 -74.06629 3070 ft 184 kts 222°
2026-05-04 22:22 40.83809 -74.07532 2984 ft 183 kts 209°
2026-05-04 22:22 40.82655 -74.08271 2750 ft 187 kts 207°
2026-05-04 22:22 40.81475 -74.08886 2595 ft 174 kts 201°
2026-05-04 22:23 40.80348 -74.09300 2431 ft 162 kts 200°
2026-05-04 22:23 40.79337 -74.09752 2256 ft 149 kts 207°
2026-05-04 22:23 40.78404 -74.10279 2052 ft 140 kts 210°
2026-05-04 22:23 40.77863 -74.10640 2026 ft 122 kts 212°
2026-05-04 22:24 40.77195 -74.11116 1924 ft 106 kts 212°
2026-05-04 22:24 40.76515 -74.11598 1698 ft 114 kts 212°
2026-05-04 22:24 40.75805 -74.12116 1434 ft 119 kts 212°
2026-05-04 22:24 40.75078 -74.12649 1264 ft 120 kts 211°
2026-05-04 22:25 40.74333 -74.13195 1080 ft 123 kts 211°
2026-05-04 22:25 40.73567 -74.13680 900 ft 120 kts 210°
2026-05-04 22:25 40.72820 -74.14155 715 ft 120 kts 211°
2026-05-04 22:25 40.72065 -74.14658 537 ft 125 kts 209°
2026-05-04 22:26 40.71275 -74.15170 378 ft 128 kts 208°
2026-05-04 22:26 40.70469 -74.15676 206 ft 127 kts 212°
2026-05-04 22:26 40.69707 -74.16180 54 ft 121 kts 209°
2026-05-04 22:26 40.69046 -74.16609 21 ft 76 kts 206°
2026-05-04 22:27 40.68824 -74.16766 18 ft 28 kts 216°
2026-05-04 22:27 40.68732 -74.16893 21 ft 0 kts 235°
2026-05-04 22:27 40.68711 -74.16932 21 ft 12 kts 233°
2026-05-04 22:27 40.68695 -74.16960 21 ft 3 kts 233°
2026-05-04 22:28 40.68681 -74.16985 21 ft 5 kts 235°
2026-05-04 22:28 40.68646 -74.17055 21 ft 12 kts 237°
2026-05-04 22:28 40.68625 -74.17160 22 ft 13 kts 285°
2026-05-04 22:28 40.68671 -74.17280 25 ft 13 kts 298°
2026-05-04 22:29 40.68711 -74.17381 26 ft 12 kts 296°
2026-05-04 22:29 40.68774 -74.17432 24 ft 13 kts 12°
2026-05-04 22:29 40.68861 -74.17384 20 ft 14 kts 25°
2026-05-04 22:29 40.68949 -74.17329 20 ft 14 kts 25°
2026-05-04 22:30 40.69034 -74.17276 18 ft 15 kts 25°
2026-05-04 22:30 40.69139 -74.17210 17 ft 17 kts 25°
2026-05-04 22:30 40.69245 -74.17143 18 ft 17 kts 27°
2026-05-04 22:30 40.69347 -74.17080 17 ft 16 kts 15°
2026-05-04 22:31 40.69432 -74.17070 17 ft 8 kts 347°
2026-05-04 22:31 40.69446 -74.17132 16 ft 8 kts 244°
2026-05-04 22:31 40.69418 -74.17184 17 ft 3 kts 235°